User: anonymous   Login
Location: Melbourne
(37.8170°S, 144.9670°E)
Time: 15:22:11
(UTC+11:00)
Language:

ERBS - Orbit

View from above orbital plane
View from above orbital plane
View from above satellite
View from above satellite

Ground track
Ground track

The orbit data is extracted from the following two-line orbital elements,

1 15354U 84108B   15065.51617587  .00011567  00000-0  35950-3 0  9991
2 15354 057.0111 106.4214 0013272 350.2349 009.8441 15.33772416669796
Epoch (UTC): 06 March 2015 12:23:17
Eccentricity: 0.0013272
inclination: 57.0111°
perigee height: 455 km
apogee height: 473 km
right ascension of ascending node: 106.4214°
argument of perigee: 350.2349°
revolutions per day: 15.33772416
mean anomaly at epoch: 9.8441°
orbit number at epoch: 66979

The dashed part of the orbit path shows where the satellite is in the earth's shadow,  

DLR